Location: Newark
(34.0131°N, 4.3314°W)
Time: 07:59:48
(UTC+00:00)

deb Explorer IX - Visible Passes

Search period start: 19 October 2019 00:00
Search period end: 29 October 2019 00:00
Orbit: 544 x 1107 km, 38.8° (Epoch: 18 October)

Date Brightness Start Highest point End Pass type
(mag) Time Alt. Az. Time Alt. Az. Time Alt. Az.
19 Oct ? 18:50:19 10° WNW 18:57:09 65° SSW 19:02:54 17° SE visible
19 Oct ? 20:38:52 10° W 20:44:06 22° SW 20:44:19 22° SW visible
20 Oct ? 18:28:25 10° WNW 18:35:07 64° SSW 18:42:21 10° SE visible
20 Oct ? 20:16:58 10° W 20:22:04 21° SW 20:24:12 19° SSW visible
21 Oct ? 18:06:33 10° WNW 18:13:05 62° SSW 18:20:16 10° SE visible
21 Oct ? 19:55:06 10° W 20:00:02 20° SW 20:04:17 12° S visible
22 Oct ? 19:33:14 10° W 19:38:01 20° SW 19:42:58 10° S visible
23 Oct ? 19:11:25 10° W 19:16:00 19° SW 19:20:46 10° S visible
24 Oct ? 18:49:39 10° W 18:53:59 18° SW 18:58:33 10° S visible
25 Oct ? 18:27:54 10° WSW 18:32:00 17° SW 18:36:19 10° S visible
26 Oct ? 18:06:11 10° WSW 18:10:00 16° SW 18:14:03 10° S visible
